ROBUSTA-1E (ENSO)

Last updated on Tue Nov 04 2025 00:03:47 GMT+0000 (Coordinated Universal Time)

1 58470U 23185J 25305.67353662 .00814819 32711-3 13838-2 0 9999 2 58470 97.3445 28.0363 0007748 264.7060 95.3336 16.02640667107770
UTC large
Height (km)
Speed (km/s)
/
Latitude / Longitude
Inclination (degrees)
Orbital Period (minutes)
Azimuth
Elevation
Range (km)
Doppler Factor

Next 0 passes for location: London (51.5072 / 0.1276)

Sorry there are no passes over London.